Flag for Japan Weather past 2 weeks in Utsunomiya, Japan

Now
41 °F

Quite cool.


Feels Like: 38 °F
Forecast: 34 / 46 °F
Wind: 5 mph from North

Location: Mito

Current Time: Mar 7, 2015 at 3:11:26 AM

Latest Report: Mar 7, 2015 at 2:00 AM


Visibility: N/A

Pressure: 30.29 "Hg

Humidity: 80%

Dew point: 35 °F

Location of UtsunomiyaLocation

Historic Weather in Utsunomiya — Graph

°F

Utsunomiya temperature yesterday

Maximum temperature yesterday: 48 °F (at 11:00 AM)
Minimum temperature yesterday: 38 °F (at 7:00 AM)
Average temperature yesterday: 43 °F

Past Weeks' High & Low Weather Summary

 TemperatureHumidityPressure
High56 °F (Mar 4, 2:00 PM)97% (Feb 23, 4:00 AM)30.42 "Hg (Feb 23, 4:00 AM)
Low28 °F (Feb 21, 6:00 AM)18% (Feb 27, 2:00 PM)29.38 "Hg (Mar 1, 9:00 PM)
Average43 °F72%30.04 "Hg
* Reported Feb 20 1:00 AM — Mar 7 1:00 AM, Utsunomiya, Weather by CustomWeather, © 2015

Note: Actual official high and low records may vary slightly from our data, if they occured in-between our weather recording intervals... More about our weather records

Advertising

Utsunomiya weather history for previous 24 hours

 ConditionsComfort  
Time TempWeatherWind HumidityBarometerVisibility
1:00 AM
Sat, Mar 7
43 °FQuite cool.6 mph72%30.29 "HgN/A
12:00 AM43 °FQuite cool.9 mph71%30.29 "HgN/A
11:00 PM
Fri, Mar 6
43 °FQuite cool.8 mph71%30.30 "HgN/A
10:00 PM43 °FQuite cool.8 mph71%30.30 "HgN/A
9:00 PM43 °FOvercast.8 mph72%30.30 "Hg19 mi
8:00 PM42 °FQuite cool.7 mph78%30.29 "HgN/A
7:00 PM42 °FQuite cool.9 mph75%30.28 "HgN/A
6:00 PM43 °FQuite cool.9 mph73%30.27 "HgN/A
5:00 PM43 °FQuite cool.12 mph71%30.26 "HgN/A
4:00 PM45 °FCool.10 mph61%30.24 "HgN/A
3:00 PM46 °FOvercast.12 mph57%30.24 "Hg25 mi
2:00 PM46 °FCool.12 mph59%30.24 "HgN/A
1:00 PM47 °FCool.12 mph55%30.25 "HgN/A
11:00 AM48 °FCool.9 mph47%30.29 "HgN/A
10:00 AM47 °FCool.9 mph47%30.29 "HgN/A
9:00 AM44 °FOvercast.6 mph49%30.30 "Hg25 mi
8:00 AM40 °FQuite cool.2 mph66%30.30 "HgN/A
7:00 AM38 °FChilly.2 mph71%30.28 "HgN/A
5:00 AM40 °FChilly.2 mph60%30.24 "HgN/A
3:00 AM40 °FOvercast.3 mph56%30.21 "Hg19 mi
Weather by CustomWeather, © 2015

See weather overviewHow to use our weather pages